This is the latest recevied weather packets stored in our database for station/object MIDVIL-WX. If no packets are shown the sender has not sent any weather packets the latest 10 day(s).
| Time | Temp. | Humidity | Pressure | Rain* | Wind** | Luminosity | Snow |
|---|---|---|---|---|---|---|---|
| 1777882529 | 8.33° C | 78% | 977.3 hPa | 0 mm | - | - | - |
| 1777881657 | 8.33° C | 81% | 977.4 hPa | 0 mm | - | - | - |
| 1777880729 | 8.33° C | 78% | 978.2 hPa | 0 mm | - | - | - |
| 1777879847 | 8.89° C | 78% | 978.2 hPa | 0 mm | - | - | - |
| 1777878929 | 8.33° C | 78% | 978.2 hPa | 0 mm | - | - | - |
| 1777878054 | 8.33° C | 78% | 978.2 hPa | 0 mm | - | - | - |
| 1777877129 | 8.33° C | 77% | 979.6 hPa | 0 mm | - | - | - |
| 1777876246 | 8.33° C | 77% | 979.6 hPa | 0 mm | - | - | - |
| 1777875329 | 8.33° C | 77% | 979.6 hPa | 0 mm | - | - | - |
| 1777874461 | 8.33° C | 77% | 979.6 hPa | 0 mm | - | - | - |
| 1777873524 | 8.33° C | 76% | 980.4 hPa | 0 mm | - | - | - |
| 1777872646 | 8.33° C | 78% | 980 hPa | 0 mm | - | - | - |
| 1777871728 | 8.33° C | 78% | 979.9 hPa | 0 mm | - | - | - |
| 1777870858 | 8.33° C | 78% | 979.9 hPa | 0 mm | - | - | - |
| 1777869926 | 8.33° C | 78% | 980.3 hPa | 0 mm | - | - | - |
| 1777869048 | 8.33° C | 78% | 980.2 hPa | 0 mm | - | - | - |
| 1777868125 | 8.33° C | 78% | 980.2 hPa | 0 mm | - | - | - |
| 1777867260 | 8.33° C | 78% | 980.2 hPa | 0 mm | - | - | - |
| 1777866325 | 8.33° C | 76% | 980.7 hPa | 0 mm | - | - | - |
| 1777865446 | 8.33° C | 77% | 981 hPa | 0 mm | - | - | - |
| 1777864527 | 8.33° C | 77% | 981 hPa | 0 mm | - | - | - |
| 1777863655 | 8.33° C | 77% | 981 hPa | 0 mm | - | - | - |
| 1777862725 | 8.33° C | 73% | 980.9 hPa | 0 mm | - | - | - |
| 1777861841 | 8.89° C | 75% | 981.1 hPa | 0 mm | - | - | - |
| 1777860925 | 8.89° C | 75% | 981.1 hPa | 0 mm | - | - | - |
* Rain latest hour (hover to see other rain measurements)
** Current wind speed in m/s (hover to see current wind gust speed)